Location: Arbon
(43.0005°N, 0.7472°E)
Time: 01:06:06
(UTC+00:00)

Meteor 1-28 Rocket - Pass Details

Date: 07 August 2020
Orbit: 503 x 524 km, 97.3° (Epoch: 19 September)

Event Time Altitude Azimuth Distance (km) Brightness Sun altitude
Exits shadow 02:36:29 28° 141° (SE) 1,003 4.5 -21.0°
Maximum altitude 02:38:15 55° 74° (ENE) 630 3.8 -20.8°
Drops below altitude 10° 02:41:59 10° 357° (N) 1,769 6.5 -20.3°
Sets 02:44:08 0° 353° (N) 2,664 7.4 -20.1°
